Radiation Dose at Monitoring Post of Fukushima Daini Nuclear Power Station
Date,Time,MP-1(microSv/h),MP-2(microSv/h),MP-3(microSv/h),MP-4(microSv/h),MP-5(microSv/h),MP-6(microSv/h),MP-7(microSv/h),Wind Direction,Wind Velocity(m/s),Rain
2020/10/08,00:00,0.178,0.159,0.256,0.242,0.242,0.140,0.084,south-southwest,1.6,Yes
2020/10/08,00:10,0.177,0.161,0.255,0.244,0.244,0.139,0.085,south-southwest,1.7,Yes
2020/10/08,00:20,0.177,0.159,0.255,0.242,0.242,0.139,0.084,south,1.3,Yes
2020/10/08,00:30,0.177,0.160,0.255,0.243,0.243,0.139,0.084,south,1.4,Yes
2020/10/08,00:40,0.177,0.160,0.256,0.242,0.244,0.139,0.084,south-southeast,2.4,Yes
2020/10/08,00:50,0.178,0.159,0.254,0.242,0.242,0.140,0.084,south-southeast,3.0,Yes
2020/10/08,01:00,0.176,0.160,0.256,0.242,0.244,0.139,0.084,south,2.5,Yes
2020/10/08,01:10,0.177,0.158,0.253,0.242,0.243,0.138,0.084,south-southwest,2.1,Yes
2020/10/08,01:20,0.176,0.160,0.255,0.243,0.245,0.139,0.084,south-southwest,1.9,Yes
2020/10/08,01:30,0.178,0.159,0.256,0.240,0.241,0.139,0.084,south,2.0,Yes
2020/10/08,01:40,0.176,0.159,0.255,0.243,0.245,0.138,0.084,south-southwest,2.4,Yes
2020/10/08,01:50,0.177,0.159,0.257,0.241,0.240,0.139,0.084,south-southwest,2.5,Yes
2020/10/08,02:00,0.177,0.160,0.254,0.242,0.244,0.139,0.084,south,1.9,Yes
2020/10/08,02:10,0.177,0.159,0.255,0.241,0.242,0.139,0.084,south,2.0,Yes
2020/10/08,02:20,0.176,0.158,0.255,0.242,0.244,0.139,0.084,south,3.0,Yes
2020/10/08,02:30,0.175,0.160,0.255,0.242,0.242,0.139,0.084,south-southeast,2.7,Yes
2020/10/08,02:40,0.176,0.159,0.253,0.240,0.243,0.139,0.085,south,2.3,Yes
2020/10/08,02:50,0.177,0.159,0.254,0.241,0.243,0.139,0.085,south-southwest,2.2,Yes
2020/10/08,03:00,0.178,0.160,0.254,0.240,0.243,0.138,0.085,southwest,2.9,Yes
2020/10/08,03:10,0.176,0.159,0.252,0.241,0.244,0.139,0.087,south,3.3,Yes
2020/10/08,03:20,0.178,0.159,0.253,0.240,0.242,0.139,0.087,south-southeast,2.2,Yes
2020/10/08,03:30,0.176,0.160,0.254,0.241,0.245,0.140,0.088,south-southeast,2.0,Yes
2020/10/08,03:40,0.178,0.160,0.254,0.240,0.243,0.140,0.087,south-southeast,1.2,Yes
2020/10/08,03:50,0.178,0.160,0.254,0.240,0.245,0.140,0.087,south-southwest,1.2,Yes
2020/10/08,04:00,0.176,0.160,0.255,0.241,0.243,0.140,0.087,south-southeast,1.4,Yes
2020/10/08,04:10,0.179,0.161,0.253,0.240,0.244,0.140,0.087,south-southeast,3.8,Yes
2020/10/08,04:20,0.178,0.161,0.252,0.241,0.244,0.140,0.087,south-southeast,0.6,Yes
2020/10/08,04:30,0.177,0.161,0.254,0.240,0.245,0.139,0.086,south-southwest,1.2,Yes
2020/10/08,04:40,0.177,0.160,0.252,0.240,0.243,0.139,0.087,south-southeast,0.6,Yes
2020/10/08,04:50,0.177,0.158,0.254,0.240,0.243,0.138,0.086,southeast,0.9,Yes
2020/10/08,05:00,0.175,0.160,0.252,0.239,0.243,0.139,0.085,south,1.1,Yes
2020/10/08,05:10,0.176,0.158,0.251,0.240,0.243,0.139,0.085,southwest,1.1,Yes
2020/10/08,05:20,0.175,0.158,0.252,0.240,0.243,0.139,0.085,south-southwest,0.9,Yes
2020/10/08,05:30,0.176,0.158,0.252,0.240,0.241,0.138,0.084,south,0.6,Yes
2020/10/08,05:40,0.175,0.159,0.252,0.239,0.244,0.139,0.084,southwest,0.6,Yes
2020/10/08,05:50,0.174,0.158,0.252,0.239,0.242,0.138,0.085,south-southeast,0.9,Yes
2020/10/08,06:00,0.175,0.158,0.252,0.239,0.244,0.138,0.084,west-southwest,0.8,Yes
2020/10/08,06:10,0.174,0.158,0.252,0.238,0.241,0.137,0.084,west-northwest,1.2,Yes
2020/10/08,06:20,0.175,0.158,0.253,0.240,0.243,0.137,0.083,west-northwest,1.0,Yes
2020/10/08,06:30,0.175,0.158,0.251,0.238,0.241,0.138,0.083,west,1.7,Yes
2020/10/08,06:40,0.175,0.157,0.252,0.239,0.243,0.137,0.083,west-northwest,0.9,Yes
2020/10/08,06:50,0.174,0.158,0.251,0.239,0.242,0.137,0.085,-,CALM,Yes
2020/10/08,07:00,0.176,0.158,0.251,0.240,0.242,0.137,0.084,northwest,1.2,Yes
2020/10/08,07:10,0.174,0.158,0.252,0.239,0.241,0.138,0.085,northwest,1.9,Yes
2020/10/08,07:20,0.175,0.158,0.252,0.238,0.242,0.138,0.084,north-northwest,2.0,Yes
2020/10/08,07:30,0.176,0.159,0.252,0.240,0.243,0.139,0.084,northwest,0.9,Yes
2020/10/08,07:40,0.174,0.157,0.252,0.238,0.242,0.137,0.084,northwest,2.2,Yes
2020/10/08,07:50,0.174,0.158,0.251,0.240,0.242,0.138,0.084,northwest,2.2,Yes
2020/10/08,08:00,0.174,0.158,0.251,0.238,0.242,0.137,0.084,west-northwest,1.8,Yes
2020/10/08,08:10,0.174,0.157,0.248,0.238,0.243,0.137,0.083,northwest,3.2,Yes
2020/10/08,08:20,0.174,0.158,0.252,0.238,0.240,0.137,0.083,northwest,3.7,Yes
2020/10/08,08:30,0.174,0.157,0.249,0.237,0.243,0.136,0.083,northwest,3.7,Yes
2020/10/08,08:40,0.174,0.157,0.251,0.238,0.239,0.137,0.083,northwest,4.3,Yes
2020/10/08,08:50,0.174,0.158,0.251,0.237,0.242,0.137,0.083,northwest,4.9,Yes
2020/10/08,09:00,0.175,0.157,0.251,0.239,0.240,0.137,0.083,northwest,4.4,Yes
2020/10/08,09:10,0.174,0.157,0.252,0.237,0.243,0.137,0.083,northwest,5.6,Yes
2020/10/08,09:20,0.175,0.157,0.250,0.239,0.241,0.137,0.084,northwest,5.4,Yes
2020/10/08,09:30,0.173,0.157,0.252,0.236,0.242,0.137,0.084,northwest,5.4,Yes
2020/10/08,09:40,0.175,0.157,0.249,0.238,0.240,0.138,0.083,northwest,4.5,Yes
2020/10/08,09:50,0.174,0.157,0.251,0.237,0.243,0.137,0.084,northwest,4.4,Yes
2020/10/08,10:00,0.175,0.156,0.250,0.237,0.242,0.137,0.084,northwest,5.1,Yes
2020/10/08,10:10,0.174,0.158,0.249,0.239,0.241,0.137,0.083,northwest,5.8,Yes
2020/10/08,10:20,0.174,0.158,0.250,0.237,0.242,0.136,0.084,north-northwest,5.0,Yes
2020/10/08,10:30,0.175,0.157,0.249,0.239,0.240,0.138,0.084,north-northwest,4.3,Yes
2020/10/08,10:40,0.173,0.157,0.251,0.237,0.242,0.137,0.085,northwest,4.7,Yes
2020/10/08,10:50,0.174,0.158,0.248,0.239,0.240,0.138,0.084,northwest,3.3,Yes
2020/10/08,11:00,0.173,0.158,0.250,0.237,0.242,0.137,0.084,north-northwest,4.1,Yes
2020/10/08,11:10,0.176,0.158,0.250,0.238,0.242,0.138,0.085,northwest,2.7,Yes
2020/10/08,11:20,0.175,0.158,0.249,0.237,0.242,0.136,0.086,northwest,4.0,Yes
2020/10/08,11:30,0.174,0.158,0.251,0.239,0.241,0.137,0.085,northwest,4.1,Yes
2020/10/08,11:40,0.174,0.159,0.249,0.238,0.243,0.137,0.085,west-northwest,3.9,Yes
2020/10/08,11:50,0.174,0.158,0.251,0.237,0.240,0.138,0.085,north-northeast,4.1,Yes
2020/10/08,12:00,0.176,0.158,0.249,0.238,0.242,0.138,0.086,north,2.8,Yes
2020/10/08,12:10,0.173,0.159,0.250,0.238,0.241,0.138,0.086,north-northwest,5.2,Yes
2020/10/08,12:20,0.176,0.158,0.250,0.238,0.242,0.137,0.086,north-northwest,3.3,Yes
2020/10/08,12:30,0.174,0.158,0.249,0.237,0.242,0.138,0.084,north-northwest,2.4,Yes
2020/10/08,12:40,0.174,0.158,0.250,0.239,0.242,0.137,0.084,northwest,3.3,Yes
2020/10/08,12:50,0.172,0.157,0.250,0.237,0.242,0.137,0.084,north-northwest,4.0,Yes
2020/10/08,13:00,0.174,0.157,0.251,0.237,0.241,0.137,0.085,north-northwest,5.8,Yes
2020/10/08,13:10,0.173,0.157,0.248,0.237,0.242,0.137,0.084,northwest,4.6,Yes
2020/10/08,13:20,0.173,0.156,0.249,0.236,0.240,0.137,0.084,northwest,5.7,Yes
2020/10/08,13:30,0.174,0.156,0.248,0.236,0.243,0.135,0.084,north-northwest,4.8,Yes
2020/10/08,13:40,0.173,0.155,0.249,0.235,0.241,0.136,0.084,north,4.1,Yes
2020/10/08,13:50,0.173,0.158,0.249,0.238,0.242,0.136,0.084,north,2.6,Yes
2020/10/08,14:00,0.173,0.158,0.248,0.237,0.241,0.137,0.085,north,3.7,Yes
2020/10/08,14:10,0.173,0.158,0.250,0.238,0.242,0.137,0.084,north,3.8,Yes
2020/10/08,14:20,0.173,0.157,0.249,0.237,0.241,0.137,0.086,north,3.9,Yes
2020/10/08,14:30,0.174,0.157,0.250,0.237,0.242,0.136,0.084,north,3.9,Yes
2020/10/08,14:40,0.173,0.157,0.249,0.238,0.241,0.136,0.084,northwest,3.9,Yes
2020/10/08,14:50,0.172,0.157,0.249,0.235,0.242,0.136,0.084,north-northwest,5.6,Yes
2020/10/08,15:00,0.174,0.157,0.250,0.237,0.240,0.136,0.083,northwest,5.6,Yes
2020/10/08,15:10,0.173,0.157,0.247,0.236,0.240,0.136,0.084,north-northwest,5.0,Yes
2020/10/08,15:20,0.174,0.156,0.249,0.238,0.243,0.137,0.084,north,5.6,Yes
2020/10/08,15:30,0.172,0.158,0.250,0.237,0.240,0.138,0.085,northwest,4.3,Yes
2020/10/08,15:40,0.174,0.159,0.250,0.238,0.244,0.138,0.085,north-northwest,5.7,Yes
2020/10/08,15:50,0.174,0.158,0.251,0.239,0.242,0.137,0.085,north-northwest,6.4,Yes
2020/10/08,16:00,0.175,0.158,0.251,0.237,0.243,0.137,0.086,north-northwest,6.4,Yes
2020/10/08,16:10,0.174,0.158,0.252,0.240,0.242,0.138,0.085,north-northwest,5.7,Yes
2020/10/08,16:20,0.173,0.158,0.250,0.238,0.244,0.138,0.085,north-northwest,4.3,Yes
2020/10/08,16:30,0.175,0.158,0.251,0.239,0.243,0.138,0.085,north,3.9,Yes
2020/10/08,16:40,0.174,0.158,0.249,0.238,0.242,0.137,0.085,north,3.8,Yes
2020/10/08,16:50,0.173,0.158,0.249,0.238,0.242,0.137,0.084,north,3.2,Yes
2020/10/08,17:00,0.173,0.157,0.250,0.237,0.241,0.136,0.084,northwest,6.3,Yes
2020/10/08,17:10,0.173,0.157,0.248,0.237,0.242,0.136,0.083,northwest,7.6,Yes
2020/10/08,17:20,0.172,0.155,0.248,0.236,0.241,0.135,0.083,northwest,9.2,Yes
2020/10/08,17:30,0.171,0.156,0.248,0.236,0.242,0.135,0.083,northwest,7.7,Yes
2020/10/08,17:40,0.174,0.157,0.249,0.237,0.240,0.135,0.083,north-northwest,6.1,Yes
2020/10/08,17:50,0.172,0.157,0.250,0.238,0.242,0.136,0.084,north-northwest,5.5,Yes
2020/10/08,18:00,0.174,0.157,0.249,0.237,0.241,0.136,0.084,northwest,5.8,Yes
2020/10/08,18:10,0.172,0.157,0.250,0.237,0.240,0.135,0.083,north-northeast,3.2,Yes
2020/10/08,18:20,0.172,0.155,0.250,0.236,0.241,0.135,0.083,north-northwest,3.9,Yes
2020/10/08,18:30,0.173,0.155,0.248,0.236,0.239,0.135,0.082,north-northwest,3.8,Yes
2020/10/08,18:40,0.171,0.156,0.249,0.236,0.240,0.135,0.083,northwest,5.2,Yes
2020/10/08,18:50,0.173,0.156,0.247,0.235,0.238,0.135,0.082,northwest,4.8,Yes
2020/10/08,19:00,0.171,0.155,0.248,0.237,0.242,0.134,0.083,north-northwest,3.3,Yes
2020/10/08,19:10,0.173,0.155,0.248,0.236,0.238,0.135,0.082,north-northwest,2.7,Yes
2020/10/08,19:20,0.172,0.155,0.249,0.236,0.242,0.135,0.082,northwest,5.2,Yes
2020/10/08,19:30,0.171,0.155,0.248,0.237,0.240,0.134,0.082,northwest,7.0,Yes
2020/10/08,19:40,0.172,0.156,0.248,0.236,0.240,0.135,0.082,north-northwest,7.0,Yes
2020/10/08,19:50,0.173,0.157,0.249,0.235,0.241,0.135,0.083,north-northwest,7.6,Yes
2020/10/08,20:00,0.173,0.156,0.248,0.235,0.240,0.136,0.083,northwest,7.0,Yes
2020/10/08,20:10,0.171,0.156,0.248,0.236,0.241,0.137,0.083,northwest,6.7,Yes
2020/10/08,20:20,0.172,0.156,0.249,0.237,0.240,0.134,0.083,northwest,7.3,No
2020/10/08,20:30,0.172,0.156,0.247,0.235,0.242,0.135,0.082,northwest,6.3,No
2020/10/08,20:40,0.172,0.154,0.248,0.236,0.239,0.135,0.082,northwest,5.8,No
2020/10/08,20:50,0.172,0.156,0.247,0.235,0.242,0.134,0.082,northwest,6.2,No
2020/10/08,21:00,0.172,0.155,0.248,0.236,0.238,0.134,0.081,northwest,6.9,No
2020/10/08,21:10,0.172,0.154,0.247,0.234,0.240,0.135,0.082,north-northwest,6.5,No
2020/10/08,21:20,0.170,0.155,0.247,0.236,0.239,0.133,0.081,northwest,7.5,No
2020/10/08,21:30,0.170,0.154,0.248,0.235,0.240,0.133,0.082,northwest,7.5,No
2020/10/08,21:40,0.170,0.155,0.248,0.235,0.239,0.135,0.081,north-northwest,7.7,No
2020/10/08,21:50,0.171,0.155,0.248,0.234,0.239,0.134,0.081,north-northwest,8.4,No
2020/10/08,22:00,0.171,0.155,0.246,0.234,0.239,0.134,0.081,north-northwest,7.5,No
2020/10/08,22:10,0.171,0.155,0.247,0.236,0.239,0.133,0.081,north-northwest,8.3,Yes
2020/10/08,22:20,0.170,0.155,0.248,0.235,0.239,0.135,0.081,northwest,7.7,Yes
2020/10/08,22:30,0.171,0.155,0.247,0.235,0.239,0.134,0.081,north-northwest,8.3,No
2020/10/08,22:40,0.172,0.154,0.249,0.236,0.241,0.134,0.081,north-northwest,7.5,No
2020/10/08,22:50,0.171,0.155,0.247,0.235,0.239,0.133,0.082,north-northwest,7.0,No
2020/10/08,23:00,0.172,0.154,0.248,0.236,0.240,0.134,0.082,north-northwest,7.7,No
2020/10/08,23:10,0.170,0.155,0.248,0.234,0.239,0.134,0.082,north-northwest,7.9,Yes
2020/10/08,23:20,0.172,0.154,0.249,0.237,0.241,0.134,0.082,north-northwest,7.5,Yes
2020/10/08,23:30,0.173,0.155,0.248,0.236,0.240,0.135,0.082,north-northwest,6.7,Yes
2020/10/08,23:40,0.172,0.155,0.249,0.236,0.241,0.136,0.084,north-northwest,6.8,Yes
2020/10/08,23:50,0.172,0.155,0.250,0.236,0.241,0.136,0.085,north-northwest,7.0,Yes
